shenyang , China , ASIA

  • Monday
    May 21

    Cloudy  Cloudy

    81 °F  57 °F

    Southwest  Southwest

    4~5L   3~4L 

  • Tuesday
    May 22

    Light rain  Cloudy

    64 °F  46 °F

    Southwest  Southwest

    5~6L   3~4L 

  • Wednesday
    May 23

    Sunny  Sunny

    75 °F  59 °F

    Southwest  Southwest

    5~6L   4~5L 

  • Thursday
    May 24

    Sunny  Sunny

    84 °F  63 °F

    Southwest  Southwest

    5~6L   4~5L 

  • Friday
    May 25

    Sunny  Cloudy

    84 °F  61 °F

    Southwest  Southwest

    4~5L   4~5L 

  • Saturday
    May 26

    Cloudy  Overcast

    73 °F  59 °F

    North  North

    3~4L   3~4L 

  • Sunday
    May 27

    Overcast  Cloudy

    75 °F  55 °F

    North  No wind

    3~4L    

Date   Weather Temperature Humidity Total_rain Visibility Wind
11:00 Cloudy 76°F 45.1% 0mm 999.9km Southwest  3.8m/s
14:00 Cloudy 80°F 39% 0mm 999.9km Southwest  3.8m/s
17:00 Cloudy 80°F 33.4% 0mm 999.9km Southwest  3.7m/s
20:00 Cloudy 69°F 27.8% 0mm 999.9km Southwest  2.2m/s
23:00 Cloudy 65°F 44.9% 0mm 999.9km Southwest  2.9m/s
02:00 Cloudy 60°F 62.9% 0mm 999.9km Southwest  1.1m/s
05:00 Cloudy 58°F 82.3% 0mm 999.9km Southeast  1.1m/s
08:00 Cloudy 64°F 82.5% 0mm 999.9km Southwest  3.3m/s
11:00 Light rain 64°F 83.2% 0.6mm 999.9km Southwest  3.0m/s
14:00 Light rain 64°F 89.2% 0.7mm 999.9km Southeast  1.6m/s
17:00 Light rain 60°F 86.6% 2.3mm 999.9km Southwest  2.5m/s
20:00 Moderate rain 55°F 83.9% 5.8mm 999.9km Northwest  1.4m/s
23:00 Cloudy 54°F 83.2% 0mm 999.9km Northwest  0.8m/s
02:00 Cloudy 47°F 87.1% 0mm 999.9km Southwest  1.1m/s
05:00 Cloudy 50°F 89.4% 0mm 999.9km Southwest  1.3m/s
08:00 Cloudy 55°F 74.5% 0mm 999.9km Southwest  3.5m/s
11:00 Sunny 65°F 40.7% 0mm 999.9km Southwest  5.6m/s
14:00 Sunny 74°F 38.4% 0mm 999.9km Southwest  5.1m/s
17:00 Sunny 75°F 47.4% 0mm 999.9km Southwest  3.9m/s
20:00 Sunny 64°F 49.7% 0mm 999.9km Southwest  2.2m/s
23:00 Sunny 63°F 63.5% 0mm 999.9km Southwest  1.5m/s
02:00 Sunny 59°F 68.8% 0mm 999.9km Southwest  1.5m/s
05:00 Sunny 63°F 68.8% 0mm 999.9km Southwest  0.9m/s
08:00 Sunny 71°F 68.8% 0mm 999.9km Southwest  3.4m/s
11:00 Sunny 82°F 33.5% 0mm 999.9km Southwest  6.1m/s
14:00 Sunny 84°F 43.6% 0mm 999.9km Southwest  5.1m/s
17:00 Sunny 81°F 50.6% 0mm 999.9km Southwest  5.9m/s
20:00 Sunny 75°F 52.5% 0mm 999.9km Southwest  2.7m/s
23:00 Sunny 69°F 54.7% 0mm 999.9km Southwest  2.6m/s
02:00 Sunny 63°F 63.9% 0mm 999.9km Southwest  2.0m/s
05:00 Sunny 63°F 79.1% 0mm 999.9km Southwest  1.1m/s
08:00 Sunny 72°F 74% 0mm 999.9km Southwest  2.6m/s
11:00 Sunny 80°F 53.1% 0mm 999.9km Southwest  3.4m/s
14:00 Sunny 84°F 57% 0mm 999.9km Southwest  3.8m/s
17:00 Sunny 80°F 60.8% 0mm 999.9km Southwest  2.7m/s
20:00 Sunny 72°F 68.7% 0mm 999.9km Southeast  2.4m/s
23:00 Cloudy 67°F 69.3% 0mm 999.9km Southeast  1.7m/s
02:00 Cloudy 65°F 76.1% 0mm 999.9km Southwest  1.4m/s
05:00 Cloudy 61°F 80.9% 0mm 999.9km Southeast  0.9m/s
08:00 Cloudy 69°F 70.1% 0mm 999.9km Southwest  2.2m/s
11:00 Cloudy 70°F 48.2% 0mm 999.9km Southwest  2.6m/s
14:00 Cloudy 73°F 57.8% 0mm 999.9km Southwest  4.7m/s
17:00 Cloudy 69°F 59.1% 0mm 999.9km Northwest  3.4m/s
20:00 Cloudy 68°F 60.5% 0mm 999.9km Southwest  1.8m/s
23:00 Overcast 63°F 91.4% 0mm 999.9km Southwest  1.3m/s
02:00 Overcast 61°F 72.4% 0mm 999.9km Northwest  0.6m/s
05:00 Overcast 59°F 74.8% 0mm 999.9km Southwest  0.2m/s
08:00 Overcast 64°F 60.7% 0mm 999.9km Northwest  3.1m/s
11:00 Overcast 67°F 42.4% 0mm 999.9km Northwest  3.5m/s
14:00 Overcast 75°F 43.9% 0mm 999.9km Northwest  2.8m/s
17:00 Overcast 70°F 45.3% 0mm 999.9km Southwest  2.5m/s
20:00 Overcast 63°F 53.9% 0mm 999.9km Northwest  2.0m/s
23:00 Sunny 61°F 58.6% 0mm 999.9km Southwest  0.4m/s
02:00 Cloudy 57°F 70.9% 0mm 999.9km Southwest  0.8m/s
05:00 Cloudy 56°F 82.9% 0mm 999.9km Southwest  1.1m/s